Powrót do katalogu

COSMOS 1275 DEB

AktywnyPO
NORAD 13021·DEBRIS·🇷🇺 Russia

Wystrzelony Jun 4, 1981 z Plesetsk Cosmodrome

Loading…

Następne Przeloty (najbliższe 24 godziny)

TLE

ŚwieżeSource: Space-Track

Epoka: Sep 14, 2026, 09:08 UTC

1 13021U 81053ET  26257.38060370  .00000762  00000-0  45142-3 0  9997
2 13021  83.1426 220.6552 0020213 297.2799 216.4680 14.06347357272219

Śledź COSMOS 1275 DEB w czasie rzeczywistym z AllMySat

Download on the App Store